{"data":{"norad_id":53289,"epoch":"2026-09-19T22:16:04.213056Z","epoch_age_seconds":124793,"freshness":"FRESH","line1":"1 53289U 22086AZ  26262.92782654  .00001927  00000+0  68167-4 0  9996","line2":"2 53289  53.1614  12.0902 0000926  98.0304 262.0803 15.34385747230782","mean_motion":15.34385747,"eccentricity":9.26e-5,"inclination_deg":53.1614,"raan_deg":12.0902,"arg_perigee_deg":98.0304,"mean_anomaly_deg":262.0803,"bstar":6.8167e-5,"rev_number":23078,"period_min":93.848629838713,"perigee_km":462.11213772563,"apogee_km":463.3790691838,"semimajor_km":6840.8826034547,"source":"CELESTRAK","updated_at":"2026-09-20T09:00:40.221220Z"}}